Location: Eastchurch
(51.4000°N, 0.8667°E)
Time: 00:08:25
(UTC+00:00)

Cosmos 2237 Rocket - Pass Details

Date: 19 January 2026
Orbit: 834 x 849 km, 71.0° (Epoch: 9 February)

Event Time Altitude Azimuth Distance (km) Brightness Sun altitude
Rises 17:46:14 0° 285° (WNW) 3,387 6.4 -12.5°
Reaches altitude 10° 17:50:11 10° 312° (NW) 2,458 5.1 -13.1°
Maximum altitude 17:52:45 13° 340° (NNW) 2,245 4.5 -13.5°
Drops below altitude 10° 17:55:20 10° 7° (N) 2,464 4.4 -13.9°
Enters shadow 17:57:26 - 24° (NNE) 2,897 4.6 -14.2°
